User: anonymous   Login
Location: Mercogliano
(40.9167°N, 14.7333°E)
Time: 04:27:25
(UTC+00:00)
Language:

Okean 2 Rocket - Orbit

View from above orbital plane
View from above orbital plane
View from above satellite
View from above satellite

Ground track
Ground track

The orbit data is extracted from the following two-line orbital elements,

1 20511U 90018B   20337.41812147  .00000124  00000-0  13351-4 0  9994
2 20511  82.5246 216.7100 0016042 288.9517 244.2703 14.80057173637956
Epoch (UTC): 02 December 2020 10:02:05
Eccentricity: 0.0016042
inclination: 82.5246°
perigee height: 618 km
apogee height: 640 km
right ascension of ascending node: 216.7100°
argument of perigee: 288.9517°
revolutions per day: 14.80057173
mean anomaly at epoch: 244.2703°
orbit number at epoch: 63795

The dashed part of the orbit path shows where the satellite is in the earth's shadow,  

DLR